EST,Max TemperatureF,Mean TemperatureF,Min TemperatureF,Max Dew PointF,MeanDew PointF,Min DewpointF,Max Humidity, Mean Humidity, Min Humidity, Max Sea Level PressureIn, Mean Sea Level PressureIn, Min Sea Level PressureIn, Max VisibilityMiles, Mean VisibilityMiles, Min VisibilityMiles, Max Wind SpeedMPH, Mean Wind SpeedMPH, Max Gust SpeedMPH,PrecipitationIn, CloudCover, Events, WindDirDegrees
2013-11-1,65,57,48,59,50,43,90,73,55,29.61,29.34,29.14,10,9,2,44,23,63,0.47,7,Rain,218
2013-11-2,48,41,33,46,37,20,92,74,56,30.02,29.73,29.61,10,9,4,16,8,25,0.01,8,Rain,346
2013-11-3,39,32,24,20,17,12,75,55,35,30.54,30.32,30.04,10,10,10,15,6,18,0.00,2,,354
2013-11-4,38,28,18,23,17,15,88,64,40,30.74,30.67,30.60,10,10,10,13,4,16,0.00,0,,74
2013-11-5,54,40,25,33,26,19,81,58,35,30.60,30.48,30.36,10,10,10,15,4,18,0.00,3,,205
2013-11-6,62,50,38,48,39,33,85,65,44,30.36,30.06,29.73,10,10,10,32,10,41,T,5,Rain,193
2013-11-7,58,44,30,53,37,22,93,73,52,29.93,29.81,29.67,10,10,8,29,12,38,0.12,7,Rain,258
2013-11-8,38,34,29,29,25,22,75,64,52,30.18,30.01,29.88,10,10,9,21,12,28,T,7,Snow,265
2013-11-9,40,32,24,34,27,20,96,70,44,30.22,30.07,29.84,10,9,3,13,6,15,T,6,Rain-Snow,151
2013-11-10,45,40,34,41,37,28,100,88,76,30.01,29.77,29.68,10,9,2,23,11,33,0.32,8,Rain-Snow,245
2013-11-11,39,32,25,36,29,16,92,76,59,30.13,29.95,29.82,10,9,2,25,12,35,0.25,7,Rain-Snow,240
2013-11-12,29,25,21,18,15,11,74,65,55,30.37,30.21,30.05,10,10,8,23,14,31,T,7,Snow,282
2013-11-13,35,27,18,27,15,8,78,62,46,30.39,30.25,29.96,10,10,10,22,11,30,0.00,4,,230
2013-11-14,46,40,33,33,27,23,70,60,49,30.03,30.00,29.97,10,10,10,25,13,35,0.00,2,,221
2013-11-15,52,42,32,30,26,22,59,51,42,30.14,30.07,30.01,10,10,10,24,10,32,0.00,0,,211
2013-11-16,56,42,28,33,28,23,85,62,38,30.26,30.21,30.14,10,10,10,17,4,21,0.00,2,,217
2013-11-17,61,45,28,53,44,25,92,76,60,30.15,29.88,29.44,10,10,3,20,7,26,0.10,6,Rain,131
2013-11-18,61,47,32,53,36,25,89,70,50,29.71,29.51,29.32,10,8,1,38,22,54,0.27,8,Rain-Snow,236
2013-11-19,33,29,24,23,18,14,75,62,49,30.47,30.16,29.75,10,10,10,23,13,32,T,6,,281
2013-11-20,36,27,17,19,17,14,84,64,44,30.68,30.62,30.50,10,10,10,9,2,13,0.00,0,,291
2013-11-21,45,30,15,25,19,12,88,60,31,30.60,30.48,30.34,10,10,10,12,1,15,0.00,3,,65
2013-11-22,44,38,32,41,36,25,100,85,69,30.30,30.01,29.85,10,5,1,24,4,32,0.19,8,Rain,272
2013-11-23,33,26,19,27,20,10,92,77,62,30.08,29.93,29.84,10,6,0,24,13,32,0.01,8,Fog-Snow,285
2013-11-24,20,16,11,10,4,1,76,63,49,30.38,30.20,29.99,10,10,4,25,17,33,T,4,Snow,276
2013-11-25,34,20,6,20,11,1,80,62,43,30.43,30.25,30.09,10,10,10,23,11,31,T,5,,204
2013-11-26,37,34,31,31,26,18,92,72,51,30.18,30.09,29.92,10,6,1,23,9,32,0.17,8,Snow,162
2013-11-27,34,28,22,32,29,14,96,85,74,29.89,29.61,29.49,10,4,1,26,11,35,0.75,8,Rain-Snow,335
2013-11-28,23,13,3,13,8,3,83,68,52,30.49,30.18,29.74,10,10,8,23,12,31,T,3,Snow,256
2013-11-29,20,10,-1,11,3,-4,96,76,56,30.82,30.67,30.50,10,8,0,9,2,13,0.00,1,Fog,230
2013-11-30,23,11,-2,16,6,-8,87,75,62,30.83,30.59,30.27,10,10,4,10,3,13,0.00,3,,58